Location: ??????
(38.1303°N, 24.0039°E)
Time: 11:30:23
(UTC+00:00)

Cosmos 1812 - Pass Details

Date: 20 June 2021
Orbit: 516 x 519 km, 82.5° (Epoch: 01 August)

Event Time Altitude Azimuth Distance (km) Brightness Sun altitude
Rises 02:06:41 0° 342° (NNW) 2,642 6.6 -9.5°
Reaches altitude 10° 02:08:59 10° 332° (NNW) 1,750 5.5 -9.2°
Maximum altitude 02:12:24 31° 269° (W) 919 3.6 -8.7°
Drops below altitude 10° 02:15:47 10° 206° (SSW) 1,737 4.8 -8.1°
Enters shadow 02:16:23 - 202° (SSW) 1,963 5.1 -8.0°
